When you browse on this site, cookies collect data to enhance your experience and personalize the content and advertising you see.
Visit our Privacy Policy to learn more. By continuing to use the site, you agree to this use of cookies and data.
  • In Austria
  • List of Countries
  • For 7 days
  • Water Temperature
  • Weather Map
  • News
  • Weather Widgets
  • user-avatar
    Login

    Hourly Weather Anahuac

    Today, 5 April, Sunday

    Time Temperature Precipitation Wind Pressure Humidity
    00:00 +17°C° 0 mm 3 mps 744 mmHg 86%
    01:00 +17°C° 0 mm 3 mps 744 mmHg 86%
    02:00 +16°C° 0 mm 3 mps 744 mmHg 86%
    03:00 +16°C° 0 mm 3 mps 744 mmHg 86%
    04:00 +16°C° 0 mm 3 mps 744 mmHg 86%
    05:00 +16°C° 0 mm 3 mps 744 mmHg 88%
    06:00 +17°C° 0 mm 2 mps 744 mmHg 86%
    07:00 +18°C° 0 mm 2 mps 745 mmHg 83%
    08:00 +19°C° 0 mm 2 mps 745 mmHg 81%
    09:00 +19°C° 0 mm 2 mps 745 mmHg 78%
    10:00 +20°C° 0 mm 3 mps 745 mmHg 76%
    11:00 +21°C° 0 mm 4 mps 745 mmHg 73%
    12:00 +22°C° 0 mm 4 mps 744 mmHg 71%
    13:00 +23°C° 0 mm 5 mps 743 mmHg 69%
    14:00 +25°C° 0 mm 5 mps 743 mmHg 67%
    15:00 +24°C° 0 mm 6 mps 743 mmHg 67%
    16:00 +24°C° 0 mm 6 mps 743 mmHg 66%
    17:00 +24°C° 0 mm 6 mps 743 mmHg 66%
    18:00 +25°C° 0 mm 5 mps 743 mmHg 69%
    19:00 +23°C° 0 mm 5 mps 744 mmHg 72%
    20:00 +22°C° 0 mm 4 mps 744 mmHg 75%
    21:00 +22°C° 0 mm 5 mps 744 mmHg 77%
    22:00 +22°C° 0 mm 5 mps 744 mmHg 78%
    23:00 +22°C° 0 mm 5 mps 744 mmHg 79%

    Tomorrow, 6 April, Monday

    Time Temperature Precipitation Wind Pressure Humidity
    00:00 +22°C° 0 mm 5 mps 744 mmHg 82%
    01:00 +21°C° 0 mm 4 mps 744 mmHg 84%
    02:00 +21°C° 0 mm 4 mps 744 mmHg 87%
    03:00 +21°C° 0 mm 4 mps 743 mmHg 87%
    04:00 +21°C° 0 mm 3 mps 743 mmHg 88%
    05:00 +21°C° 0 mm 3 mps 743 mmHg 89%
    06:00 +22°C° 0 mm 3 mps 744 mmHg 88%
    07:00 +22°C° 0 mm 3 mps 744 mmHg 86%
    08:00 +22°C° 0 mm 3 mps 745 mmHg 85%
    09:00 +25°C° 0 mm 4 mps 745 mmHg 80%
    10:00 +26°C° 0 mm 4 mps 744 mmHg 76%
    11:00 +27°C° 0 mm 4 mps 744 mmHg 71%
    12:00 +28°C° 0 mm 4 mps 743 mmHg 67%
    13:00 +29°C° 0 mm 5 mps 743 mmHg 63%
    14:00 +30°C° 0 mm 5 mps 742 mmHg 59%
    15:00 +29°C° 0 mm 4 mps 742 mmHg 61%
    16:00 +29°C° 0 mm 4 mps 742 mmHg 63%
    17:00 +29°C° 0 mm 4 mps 742 mmHg 65%
    18:00 +28°C° 0 mm 4 mps 742 mmHg 69%
    19:00 +27°C° 0 mm 3 mps 743 mmHg 73%
    20:00 +27°C° 0 mm 3 mps 743 mmHg 76%
    21:00 +27°C° 0.1 mm 3 mps 744 mmHg 78%
    22:00 +26°C° 0.1 mm 2 mps 744 mmHg 80%
    23:00 +26°C° 0.1 mm 2 mps 744 mmHg 82%

    Day after tomorrow, 7 April, Tuesday

    Time Temperature Precipitation Wind Pressure Humidity
    00:00 +26°C° 0.3 mm 2 mps 744 mmHg 82%
    01:00 +26°C° 0.3 mm 2 mps 744 mmHg 83%
    02:00 +26°C° 0.3 mm 2 mps 744 mmHg 84%
    03:00 +25°C° 0.5 mm 2 mps 744 mmHg 86%
    04:00 +25°C° 0.5 mm 2 mps 744 mmHg 88%
    05:00 +24°C° 0.5 mm 2 mps 744 mmHg 91%
    06:00 +25°C° 0 mm 2 mps 744 mmHg 86%
    07:00 +26°C° 0 mm 2 mps 744 mmHg 82%
    08:00 +27°C° 0 mm 1 mps 745 mmHg 78%
    09:00 +28°C° 0 mm 2 mps 744 mmHg 70%
    10:00 +30°C° 0 mm 2 mps 744 mmHg 63%
    11:00 +31°C° 0 mm 2 mps 744 mmHg 55%
    12:00 +32°C° 0 mm 2 mps 743 mmHg 53%
    13:00 +34°C° 0 mm 2 mps 742 mmHg 51%
    14:00 +35°C° 0 mm 3 mps 742 mmHg 49%
    15:00 +34°C° 0 mm 3 mps 741 mmHg 50%
    16:00 +34°C° 0 mm 3 mps 741 mmHg 52%
    17:00 +34°C° 0 mm 4 mps 741 mmHg 53%
    18:00 +33°C° 0 mm 3 mps 741 mmHg 57%
    19:00 +31°C° 0 mm 3 mps 742 mmHg 60%
    20:00 +30°C° 0 mm 3 mps 742 mmHg 63%
    21:00 +30°C° 0.4 mm 3 mps 742 mmHg 66%
    22:00 +29°C° 0.4 mm 3 mps 742 mmHg 69%
    23:00 +28°C° 0.4 mm 3 mps 743 mmHg 72%

    8 April, Wednesday

    Time Temperature Precipitation Wind Pressure Humidity
    00:00 +28°C° 0.1 mm 3 mps 742 mmHg 75%
    01:00 +27°C° 0.1 mm 3 mps 742 mmHg 78%
    02:00 +27°C° 0.1 mm 3 mps 741 mmHg 82%
    03:00 +27°C° 0 mm 3 mps 741 mmHg 83%
    04:00 +26°C° 0 mm 3 mps 741 mmHg 85%
    05:00 +26°C° 0 mm 3 mps 741 mmHg 86%
    06:00 +27°C° 0 mm 3 mps 742 mmHg 81%
    07:00 +28°C° 0 mm 3 mps 742 mmHg 76%
    08:00 +29°C° 0 mm 4 mps 743 mmHg 71%
    09:00 +31°C° 0 mm 3 mps 742 mmHg 64%
    10:00 +33°C° 0 mm 3 mps 742 mmHg 57%
    11:00 +35°C° 0 mm 2 mps 742 mmHg 51%
    12:00 +36°C° 0 mm 3 mps 741 mmHg 47%
    13:00 +36°C° 0 mm 3 mps 741 mmHg 44%
    14:00 +37°C° 0 mm 3 mps 740 mmHg 40%
    15:00 +37°C° 0 mm 3 mps 739 mmHg 41%
    16:00 +36°C° 0 mm 3 mps 739 mmHg 42%
    17:00 +36°C° 0 mm 3 mps 739 mmHg 43%
    18:00 +35°C° 0 mm 3 mps 739 mmHg 45%
    19:00 +34°C° 0 mm 3 mps 740 mmHg 47%
    20:00 +33°C° 0 mm 4 mps 740 mmHg 48%
    21:00 +32°C° 0.1 mm 4 mps 740 mmHg 56%
    22:00 +30°C° 0.1 mm 4 mps 740 mmHg 64%
    23:00 +29°C° 0.1 mm 4 mps 740 mmHg 71%

    9 April, Thursday

    Time Temperature Precipitation Wind Pressure Humidity
    00:00 +28°C° 0.6 mm 4 mps 740 mmHg 75%
    01:00 +27°C° 0.6 mm 4 mps 740 mmHg 79%
    02:00 +26°C° 0.6 mm 4 mps 740 mmHg 84%
    03:00 +26°C° 2 mm 4 mps 740 mmHg 86%
    04:00 +25°C° 2 mm 4 mps 740 mmHg 88%
    05:00 +25°C° 2 mm 3 mps 740 mmHg 90%
    06:00 +26°C° 0.2 mm 3 mps 740 mmHg 86%
    07:00 +26°C° 0.2 mm 2 mps 741 mmHg 83%
    08:00 +27°C° 0.2 mm 2 mps 741 mmHg 80%
    09:00 +28°C° 0.1 mm 2 mps 741 mmHg 77%
    10:00 +29°C° 0.1 mm 2 mps 741 mmHg 74%
    11:00 +29°C° 0.1 mm 2 mps 740 mmHg 71%
    12:00 +30°C° 0.4 mm 2 mps 740 mmHg 65%
    13:00 +31°C° 0.4 mm 2 mps 739 mmHg 59%
    14:00 +33°C° 0.4 mm 3 mps 738 mmHg 53%
    15:00 +33°C° 0.4 mm 3 mps 738 mmHg 54%
    16:00 +32°C° 0.4 mm 4 mps 738 mmHg 55%
    17:00 +30°C° 0.4 mm 4 mps 738 mmHg 57%
    18:00 +29°C° 0 mm 4 mps 738 mmHg 62%
    19:00 +28°C° 0 mm 4 mps 738 mmHg 66%
    20:00 +27°C° 0 mm 4 mps 739 mmHg 71%
    21:00 +27°C° 0 mm 4 mps 739 mmHg 72%
    22:00 +26°C° 0 mm 5 mps 739 mmHg 73%
    23:00 +26°C° 0 mm 5 mps 738 mmHg 73%

    10 April, Friday

    Time Temperature Precipitation Wind Pressure Humidity
    00:00 +26°C° 0 mm 5 mps 738 mmHg 77%
    01:00 +26°C° 0 mm 5 mps 738 mmHg 81%
    02:00 +25°C° 0 mm 5 mps 738 mmHg 85%
    03:00 +25°C° 0.3 mm 4 mps 738 mmHg 87%
    04:00 +25°C° 0.3 mm 3 mps 738 mmHg 89%
    05:00 +24°C° 0.3 mm 3 mps 738 mmHg 91%
    06:00 +23°C° 0 mm 4 mps 739 mmHg 83%
    07:00 +24°C° 0 mm 6 mps 740 mmHg 76%
    08:00 +24°C° 0 mm 8 mps 741 mmHg 69%
    09:00 +27°C° 0 mm 8 mps 741 mmHg 59%
    10:00 +28°C° 0 mm 8 mps 741 mmHg 48%
    11:00 +31°C° 0 mm 8 mps 741 mmHg 38%
    12:00 +31°C° 0 mm 8 mps 741 mmHg 35%
    13:00 +32°C° 0 mm 8 mps 741 mmHg 32%
    14:00 +32°C° 0 mm 8 mps 740 mmHg 29%
    15:00 +31°C° 0 mm 8 mps 740 mmHg 31%
    16:00 +29°C° 0 mm 7 mps 741 mmHg 33%
    17:00 +28°C° 0 mm 7 mps 741 mmHg 35%
    18:00 +27°C° 0 mm 6 mps 741 mmHg 44%
    19:00 +25°C° 0 mm 5 mps 742 mmHg 52%
    20:00 +23°C° 0 mm 4 mps 743 mmHg 61%
    21:00 +22°C° 0 mm 4 mps 744 mmHg 69%
    22:00 +22°C° 0 mm 4 mps 744 mmHg 77%
    23:00 +21°C° 0 mm 4 mps 745 mmHg 85%
    Show more